Miscellaneous Local Product
Issued by NWS Hastings, NE

Home | Current Version | Previous Version | Text Only | Print | Product List | Glossary On
Versions: 1 2 3 4 5 6 7 8 9 10 11 12 13 14 15 16 17 18 19 20 21 22 23 24 25 26 27 28 29 30 31 32 33 34 35 36 37 38 39 40 41 42 43 44 45 46 47 48 49 50
000
AXUS43 KGID 041602
MISGRI

GID CWA HOURLY WEATHER ROUNDUP
NATIONAL WEATHER SERVICE HASTINGS NE
1000 AM CST WED MAR 04 2015

NOTE: "FAIR" INDICATES FEW OR NO CLOUDS BELOW 12,000 FEET WITH NO
SIGNIFICANT WEATHER AND/OR OBSTRUCTIONS TO VISIBILITY.

...SOUTH CENTRAL NEBRASKA...

CITY           SKY/WX    TMP DP  RH WIND       PRES   REMARKS
GRAND ISLAND   SUNNY     21   7  54 NW10      30.31R WCI  10
HASTINGS       MOSUNNY   21   9  59 NW14      30.29R WCI   8
KEARNEY        MOSUNNY   18   9  68 NW9       30.30R WCI   6
ORD            SUNNY     22   1  40 NW17      30.27R WCI   8
YORK           SUNNY     19   9  63 NW13      30.30R WCI   7
AURORA         MOSUNNY   21   9  60 NW10      30.30R WCI  10
LEXINGTON      MOSUNNY   16  10  79 NW12      30.28R WCI   3
HOLDREGE       MOSUNNY   17  10  75 NW5       30.29R WCI  10
HEBRON         SUNNY     21  11  64 N3        30.33R

...NEBRASKA PANHANDLE...

CITY           SKY/WX    TMP DP  RH WIND       PRES   REMARKS
CHADRON        SUNNY     10  -3  55 NW13      30.24R WCI  -5
ALLIANCE       SUNNY     16   2  54 W16       30.18R WCI   1
SCOTTSBLUFF    SUNNY     17   5  59 NW8       30.20R WCI   7
SIDNEY         MOSUNNY   18   3  52 W13       30.19R WCI   5

...WESTERN AND NORTH CENTRAL NEBRASKA...

CITY           SKY/WX    TMP DP  RH WIND       PRES   REMARKS
VALENTINE      SUNNY     15   1  53 NW13      30.25R WCI   1
AINSWORTH      SUNNY     15   1  54 NW15      30.24R WCI  -1
ONEILL         SUNNY     16   1  50 N20G26    30.27R WCI   0
BROKEN BOW     SUNNY     20   8  60 NW9       30.25R WCI   9
IMPERIAL         N/A     17   7  64 W12       30.25R WCI   4
NORTH PLATTE   SUNNY     19   7  59 NW9       30.26R WCI   8
MCCOOK         PTSUNNY   21  12  68 W6        30.29R WCI  13

...EASTERN NEBRASKA...

CITY           SKY/WX    TMP DP  RH WIND       PRES   REMARKS
NORFOLK        NOT AVBL
SO SIOUX CITY  SUNNY     24   4  42 W23G30    30.25F WCI   9
TEKAMAH        SUNNY     26   7  44 W14       30.29S WCI  14
COLUMBUS       SUNNY     23   3  42 W15       30.30R WCI  10
ALBION         SUNNY     23   2  39 NW20G26   30.26R WCI   8
OMAHA EPPLEY   MOSUNNY   24   7  48 W10       30.31S WCI  14
OFFUTT AFB     SUNNY     22   8  54 W5        30.30S WCI  16
MILLARD        SUNNY     22   9  57 W5        30.31R WCI  16
LINCOLN        SUNNY     24   8  50 NW12      30.32S WCI  13
NEBRASKA CITY  SUNNY     20   8  59 W3        30.31R
BEATRICE       SUNNY     20  17  86 NW7       30.33R WCI  11
FALLS CITY     MOSUNNY   22  12  65 VRB6      30.34R WCI  14

...NORTHERN KANSAS...

CITY           SKY/WX    TMP DP  RH WIND       PRES   REMARKS
GOODLAND       CLOUDY    20   9  62 N14       30.24R WCI   7
HILL CITY      FAIR      23  11  60 N10       30.32R WCI  12
NORTON         PTSUNNY   19  10  68 NW10      30.30  WCI   8
PHILLIPSBURG   SUNNY     25  16  68 NW10      30.34R WCI  15
SMITH CENTER   SUNNY     19  10  68 NW8       30.34R WCI   9
BELOIT         SUNNY     25   5  42 N12       30.33S WCI  14
HAYS           CLOUDY    21   7  53 N14       30.31S WCI   8
RUSSELL        CLOUDY    23  14  68 N10       30.31R WCI  12
CONCORDIA      SUNNY     27   4  37 N15G22    30.32R WCI  15
SALINA         PTSUNNY   25  10  53 N13       30.34R WCI  14
TOPEKA         CLOUDY    23   9  55 N15       30.35R WCI  10



USA.gov is the U.S. government's official web portal to all federal, state and local government web resources and services.